Hourly Weather Bolshie Konyushany

Today, 20 June, Sunday

Time Temperature Precipitation Wind Pressure Humidity
00:00 +19°C° 0 mm 3 mps 751 mmHg 87%
01:00 +19°C° 0 mm 2 mps 751 mmHg 88%
02:00 +19°C° 0 mm 2 mps 751 mmHg 87%
03:00 +19°C° 0 mm 2 mps 751 mmHg 88%
04:00 +19°C° 0 mm 2 mps 751 mmHg 89%
05:00 +19°C° 0 mm 2 mps 751 mmHg 90%
06:00 +21°C° 0 mm 3 mps 751 mmHg 86%
07:00 +22°C° 0 mm 3 mps 751 mmHg 81%
08:00 +25°C° 0 mm 3 mps 751 mmHg 77%
09:00 +26°C° 0 mm 4 mps 751 mmHg 72%
10:00 +27°C° 0 mm 4 mps 751 mmHg 68%
11:00 +29°C° 0 mm 5 mps 751 mmHg 63%
12:00 +29°C° 0 mm 5 mps 751 mmHg 61%
13:00 +29°C° 0 mm 5 mps 750 mmHg 60%
14:00 +30°C° 0 mm 4 mps 750 mmHg 58%
15:00 +30°C° 0.2 mm 4 mps 750 mmHg 62%
16:00 +29°C° 0.2 mm 4 mps 750 mmHg 66%
17:00 +29°C° 0.2 mm 4 mps 749 mmHg 69%
18:00 +27°C° 0.2 mm 4 mps 749 mmHg 75%
19:00 +26°C° 0.2 mm 3 mps 749 mmHg 80%
20:00 +25°C° 0.2 mm 3 mps 749 mmHg 85%
21:00 +24°C° 0 mm 3 mps 749 mmHg 86%
22:00 +22°C° 0 mm 3 mps 749 mmHg 87%
23:00 +21°C° 0 mm 3 mps 749 mmHg 88%

Tomorrow, 21 June, Monday

Time Temperature Precipitation Wind Pressure Humidity
00:00 +21°C° 0 mm 3 mps 749 mmHg 90%
01:00 +20°C° 0 mm 3 mps 749 mmHg 92%
02:00 +19°C° 0 mm 3 mps 749 mmHg 94%
03:00 +19°C° 0 mm 3 mps 749 mmHg 94%
04:00 +19°C° 0 mm 3 mps 748 mmHg 94%
05:00 +19°C° 0 mm 3 mps 748 mmHg 94%
06:00 +20°C° 0 mm 3 mps 748 mmHg 88%
07:00 +22°C° 0 mm 3 mps 748 mmHg 82%
08:00 +23°C° 0 mm 4 mps 748 mmHg 76%
09:00 +26°C° 0 mm 4 mps 748 mmHg 71%
10:00 +27°C° 0 mm 4 mps 748 mmHg 65%
11:00 +28°C° 0 mm 5 mps 748 mmHg 59%
12:00 +28°C° 0 mm 5 mps 748 mmHg 59%
13:00 +29°C° 0 mm 5 mps 748 mmHg 58%
14:00 +29°C° 0 mm 5 mps 748 mmHg 58%
15:00 +29°C° 0.1 mm 5 mps 747 mmHg 60%
16:00 +29°C° 0.1 mm 5 mps 747 mmHg 63%
17:00 +28°C° 0.1 mm 5 mps 747 mmHg 66%
18:00 +27°C° 0.2 mm 4 mps 747 mmHg 70%
19:00 +26°C° 0.2 mm 3 mps 747 mmHg 75%
20:00 +25°C° 0.2 mm 3 mps 746 mmHg 80%
21:00 +24°C° 0 mm 3 mps 746 mmHg 82%
22:00 +22°C° 0 mm 3 mps 746 mmHg 84%
23:00 +22°C° 0 mm 3 mps 746 mmHg 86%

Day after tomorrow, 22 June, Tuesday

Time Temperature Precipitation Wind Pressure Humidity
00:00 +21°C° 0.3 mm 3 mps 746 mmHg 89%
01:00 +21°C° 0.3 mm 3 mps 746 mmHg 92%
02:00 +20°C° 0.3 mm 3 mps 746 mmHg 94%
03:00 +20°C° 0 mm 2 mps 746 mmHg 94%
04:00 +20°C° 0 mm 2 mps 746 mmHg 94%
05:00 +20°C° 0 mm 2 mps 746 mmHg 94%
06:00 +21°C° 0 mm 3 mps 746 mmHg 89%
07:00 +24°C° 0 mm 3 mps 747 mmHg 84%
08:00 +25°C° 0 mm 3 mps 747 mmHg 80%
09:00 +26°C° 0 mm 4 mps 747 mmHg 75%
10:00 +28°C° 0 mm 4 mps 747 mmHg 70%
11:00 +29°C° 0 mm 4 mps 747 mmHg 64%
12:00 +29°C° 0.1 mm 4 mps 747 mmHg 61%
13:00 +30°C° 0.1 mm 4 mps 747 mmHg 57%
14:00 +32°C° 0.1 mm 4 mps 747 mmHg 54%
15:00 +30°C° 0.1 mm 3 mps 747 mmHg 58%
16:00 +30°C° 0.1 mm 3 mps 747 mmHg 62%
17:00 +30°C° 0.1 mm 2 mps 747 mmHg 66%
18:00 +29°C° 0.1 mm 2 mps 747 mmHg 69%
19:00 +28°C° 0.1 mm 1 mps 747 mmHg 72%
20:00 +27°C° 0.1 mm 1 mps 747 mmHg 75%
21:00 +26°C° 0 mm 1 mps 747 mmHg 76%
22:00 +26°C° 0 mm 1 mps 747 mmHg 77%
23:00 +25°C° 0 mm 2 mps 747 mmHg 78%

23 June, Wednesday

Time Temperature Precipitation Wind Pressure Humidity
00:00 +25°C° 0 mm 1 mps 748 mmHg 80%
01:00 +24°C° 0 mm 1 mps 748 mmHg 82%
02:00 +24°C° 0 mm 1 mps 748 mmHg 84%
03:00 +23°C° 0 mm 2 mps 748 mmHg 86%
04:00 +23°C° 0 mm 2 mps 748 mmHg 87%
05:00 +23°C° 0 mm 2 mps 748 mmHg 88%
06:00 +24°C° 0.2 mm 2 mps 748 mmHg 85%
07:00 +25°C° 0.2 mm 2 mps 749 mmHg 81%
08:00 +27°C° 0.2 mm 2 mps 749 mmHg 78%
09:00 +28°C° 0.8 mm 2 mps 749 mmHg 72%
10:00 +29°C° 0.8 mm 2 mps 749 mmHg 67%
11:00 +30°C° 0.8 mm 2 mps 749 mmHg 62%
12:00 +31°C° 0.1 mm 2 mps 749 mmHg 60%
13:00 +31°C° 0.1 mm 2 mps 749 mmHg 58%
14:00 +32°C° 0.1 mm 2 mps 749 mmHg 56%
15:00 +32°C° 0 mm 2 mps 749 mmHg 59%
16:00 +31°C° 0 mm 3 mps 749 mmHg 61%
17:00 +32°C° 0 mm 4 mps 748 mmHg 64%
18:00 +29°C° 0.5 mm 3 mps 749 mmHg 71%
19:00 +27°C° 0.5 mm 3 mps 749 mmHg 77%
20:00 +25°C° 0.5 mm 3 mps 749 mmHg 84%
21:00 +24°C° 0.8 mm 2 mps 750 mmHg 87%
22:00 +21°C° 0.8 mm 2 mps 750 mmHg 91%
23:00 +20°C° 0.8 mm 2 mps 750 mmHg 94%

24 June, Thursday

Time Temperature Precipitation Wind Pressure Humidity
00:00 +20°C° 0.1 mm 2 mps 750 mmHg 94%
01:00 +21°C° 0.1 mm 1 mps 750 mmHg 93%
02:00 +22°C° 0.1 mm 1 mps 749 mmHg 92%
03:00 +22°C° 0.1 mm 1 mps 749 mmHg 92%
04:00 +22°C° 0.1 mm 1 mps 749 mmHg 92%
05:00 +22°C° 0.1 mm 1 mps 749 mmHg 92%
06:00 +21°C° 0.3 mm 0 mps 749 mmHg 89%
07:00 +22°C° 0.3 mm 0 mps 749 mmHg 86%
08:00 +23°C° 0.3 mm 0 mps 750 mmHg 83%
09:00 +24°C° 0 mm 0 mps 749 mmHg 78%
10:00 +26°C° 0 mm 0 mps 749 mmHg 72%
11:00 +27°C° 0 mm 0 mps 749 mmHg 67%
12:00 +28°C° 0.2 mm 0 mps 749 mmHg 66%
13:00 +30°C° 0.2 mm 1 mps 749 mmHg 64%
14:00 +31°C° 0.2 mm 1 mps 749 mmHg 62%
15:00 +31°C° 0.1 mm 1 mps 748 mmHg 63%
16:00 +31°C° 0.1 mm 1 mps 748 mmHg 65%
17:00 +31°C° 0.1 mm 2 mps 748 mmHg 66%
18:00 +29°C° 0.5 mm 1 mps 747 mmHg 71%
19:00 +28°C° 0.5 mm 1 mps 747 mmHg 76%
20:00 +27°C° 0.5 mm 1 mps 747 mmHg 81%
21:00 +26°C° 0.7 mm 1 mps 747 mmHg 84%
22:00 +25°C° 0.7 mm 2 mps 747 mmHg 87%
23:00 +24°C° 0.7 mm 2 mps 747 mmHg 90%

25 June, Friday

Time Temperature Precipitation Wind Pressure Humidity
00:00 +22°C° 0.8 mm 3 mps 746 mmHg 90%
01:00 +22°C° 0.8 mm 4 mps 746 mmHg 91%
02:00 +21°C° 0.8 mm 5 mps 746 mmHg 92%
03:00 +21°C° 0.2 mm 4 mps 746 mmHg 92%
04:00 +20°C° 0.2 mm 3 mps 746 mmHg 93%
05:00 +20°C° 0.2 mm 2 mps 745 mmHg 93%
06:00 +21°C° 0.2 mm 2 mps 745 mmHg 91%
07:00 +23°C° 0.2 mm 2 mps 745 mmHg 88%
08:00 +24°C° 0.2 mm 3 mps 745 mmHg 86%
09:00 +25°C° 0 mm 3 mps 745 mmHg 81%
10:00 +27°C° 0 mm 3 mps 745 mmHg 76%
11:00 +28°C° 0 mm 3 mps 745 mmHg 70%
12:00 +29°C° 0.2 mm 3 mps 745 mmHg 69%
13:00 +29°C° 0.2 mm 3 mps 745 mmHg 68%
14:00 +30°C° 0.2 mm 4 mps 744 mmHg 67%
15:00 +30°C° 0.6 mm 3 mps 744 mmHg 68%
16:00 +29°C° 0.6 mm 2 mps 744 mmHg 69%
17:00 +29°C° 0.6 mm 2 mps 744 mmHg 70%
18:00 +27°C° 1.6 mm 3 mps 744 mmHg 76%
19:00 +23°C° 1.6 mm 4 mps 744 mmHg 82%
20:00 +20°C° 1.6 mm 5 mps 744 mmHg 89%
21:00 +20°C° 0.4 mm 4 mps 744 mmHg 89%
22:00 +19°C° 0.4 mm 3 mps 744 mmHg 90%
23:00 +18°C° 0.4 mm 2 mps 744 mmHg 90%
Show more